KD8PH Weather Reports


Display with metric or nautical units.
time (UTC)temp
F
wind
direction
speed
MPH
gust
MPH
rain 1hr
in
rain 24hr
in
rain mn
in
humidity
%
barometer
mb
20260903231022 87 0.0 0.0 0.00 0.00 0.00 67 1013.1
20260903230022 87 0.0 0.0 0.00 0.00 0.00 63 1013.2
20260903225022 88 0.0 0.0 0.00 0.00 0.00 63 1013.3
20260903224022 88 0.0 0.0 0.00 0.00 0.00 62 1013.4
20260903223022 90 0.0 0.0 0.00 0.00 0.00 66 1013.0
20260903222022 94 0.0 0.0 0.00 0.00 0.00 56 1013.0
20260903221022 96 0.0 0.0 0.00 0.00 0.00 50 1013.0
20260903220021 96 0.0 0.0 0.00 0.00 0.00 49 1012.7
20260903215023 97 0.0 0.0 0.00 0.00 0.00 47 1012.6
20260903214021 97 0.0 0.0 0.00 0.00 0.00 46 1012.6
20260903213022 96 0.0 0.0 0.00 0.00 0.00 48 1012.8
20260903212022 95 0.0 0.0 0.00 0.00 0.00 51 1012.7
20260903211022 95 0.0 0.0 0.00 0.00 0.00 49 1012.7
20260903210022 95 0.0 0.0 0.00 0.00 0.00 50 1012.7
20260903205022 95 0.0 0.0 0.00 0.00 0.00 51 1012.9
20260903204022 94 0.0 0.0 0.00 0.00 0.00 53 1013.1
20260903203022 94 0.0 0.0 0.00 0.00 0.00 51 1013.3
20260903202022 94 0.0 0.0 0.00 0.00 0.00 51 1013.4
20260903201022 93 0.0 0.0 0.00 0.00 0.00 55 1013.5
20260903200022 93 0.0 0.0 0.00 0.00 0.00 57 1013.7
20260903195022 93 0.0 0.0 0.00 0.00 0.00 55 1013.7
20260903194022 93 0.0 0.0 0.00 0.00 0.00 58 1013.9
20260903193022 92 0.0 0.0 0.00 0.00 0.00 60 1014.0
20260903192029 93 0.0 0.0 0.00 0.00 0.00 59 1014.2
20260903191022 93 0.0 0.0 0.00 0.00 0.00 58 1014.2
20260903190022 93 0.0 0.0 0.00 0.00 0.00 59 1014.4
20260903185022 93 0.0 0.0 0.00 0.00 0.00 59 1014.4
20260903184022 93 0.0 0.0 0.00 0.00 0.00 58 1014.5
20260903183022 93 0.0 0.0 0.00 0.00 0.00 57 1014.7
20260903182022 93 0.0 0.0 0.00 0.00 0.00 56 1014.7
20260903181022 93 0.0 0.0 0.00 0.00 0.00 56 1014.8
20260903180022 93 0.0 0.0 0.00 0.00 0.00 55 1015.0
20260903175023 93 0.0 0.0 0.00 0.00 0.00 54 1015.0
20260903174022 92 0.0 0.0 0.00 0.00 0.00 54 1015.1
20260903173021 92 0.0 0.0 0.00 0.00 0.00 55 1015.3
20260903172021 92 0.0 0.0 0.00 0.00 0.00 57 1015.5
20260903171022 91 0.0 0.0 0.00 0.00 0.00 59 1015.7
20260903170021 91 0.0 0.0 0.00 0.00 0.00 56 1015.8
20260903165022 90 0.0 0.0 0.00 0.00 0.00 62 1015.9
20260903164023 90 0.0 0.0 0.00 0.00 0.00 62 1016.0
20260903163021 89 0.0 0.0 0.00 0.00 0.00 64 1016.1
20260903162021 89 0.0 0.0 0.00 0.00 0.00 66 1016.2
20260903161022 89 0.0 0.0 0.00 0.00 0.00 67 1016.3
20260903160023 88 0.0 0.0 0.00 0.00 0.00 70 1016.3
20260903155023 88 0.0 0.0 0.00 0.00 0.00 73 1016.2
20260903154021 87 0.0 0.0 0.00 0.00 0.00 74 1016.4
20260903153021 86 0.0 0.0 0.00 0.00 0.00 76 1016.4
20260903152022 86 0.0 0.0 0.00 0.00 0.00 75 1016.3
20260903151021 85 0.0 0.0 0.00 0.00 0.00 80 1016.3
20260903150021 84 0.0 0.0 0.00 0.00 0.00 80 1016.3
20260903145021 84 0.0 0.0 0.00 0.00 0.00 78 1016.3
20260903144021 84 0.0 0.0 0.00 0.00 0.00 79 1016.2
20260903143022 83 0.0 0.0 0.00 0.00 0.00 80 1016.1
20260903142021 83 0.0 0.0 0.00 0.00 0.00 82 1016.2
20260903141022 82 0.0 0.0 0.00 0.00 0.00 81 1016.3
20260903140021 82 0.0 0.0 0.00 0.00 0.00 80 1016.3
20260903135021 82 0.0 0.0 0.00 0.00 0.00 83 1016.2
20260903134022 82 0.0 0.0 0.00 0.00 0.00 83 1016.3
20260903133021 81 0.0 0.0 0.00 0.00 0.00 84 1016.2
20260903132021 81 0.0 0.0 0.00 0.00 0.00 85 1016.2
20260903131023 81 0.0 0.0 0.00 0.00 0.00 85 1016.2
20260903130021 80 0.0 0.0 0.00 0.00 0.00 86 1016.2
20260903125021 80 0.0 0.0 0.00 0.00 0.00 86 1016.3
20260903124021 80 0.0 0.0 0.00 0.00 0.00 86 1016.3
20260903123021 79 0.0 0.0 0.00 0.00 0.00 87 1016.3
20260903122025 79 0.0 0.0 0.00 0.00 0.00 87 1016.3
20260903121021 79 0.0 0.0 0.00 0.00 0.00 87 1016.2
20260903120021 78 0.0 0.0 0.00 0.00 0.00 87 1016.1
20260903115021 78 0.0 0.0 0.00 0.00 0.00 88 1016.2
20260903114021 78 0.0 0.0 0.00 0.00 0.00 88 1016.0
20260903113021 78 0.0 0.0 0.00 0.00 0.00 88 1015.9
20260903112023 78 0.0 0.0 0.00 0.00 0.00 88 1015.9
20260903111023 78 0.0 0.0 0.00 0.00 0.00 87 1015.8
20260903110023 78 0.0 0.0 0.00 0.00 0.00 87 1015.8
20260903105023 78 0.0 0.0 0.00 0.00 0.00 87 1015.7
20260903104023 78 0.0 0.0 0.00 0.00 0.00 87 1015.6
20260903103023 79 0.0 0.0 0.00 0.00 0.00 87 1015.6
20260903102023 79 0.0 0.0 0.00 0.00 0.00 87 1015.6
20260903101023 79 0.0 0.0 0.00 0.00 0.00 87 1015.4
20260903100022 79 0.0 0.0 0.00 0.00 0.00 87 1015.3
20260903095023 78 0.0 0.0 0.00 0.00 0.00 87 1015.4
20260903094023 78 0.0 0.0 0.00 0.00 0.00 87 1015.4
20260903093023 78 0.0 0.0 0.00 0.00 0.00 87 1015.3
20260903092023 78 0.0 0.0 0.00 0.00 0.00 87 1015.3
20260903091022 79 0.0 0.0 0.00 0.00 0.00 87 1015.3
20260903090023 79 0.0 0.0 0.00 0.00 0.00 87 1015.3
20260903085022 79 0.0 0.0 0.00 0.00 0.00 87 1015.3
20260903084024 79 0.0 0.0 0.00 0.00 0.00 87 1015.3
20260903083022 79 0.0 0.0 0.00 0.00 0.00 87 1015.2
20260903082022 79 0.0 0.0 0.00 0.00 0.00 87 1015.2
20260903081025 78 0.0 0.0 0.00 0.00 0.00 88 1015.1
20260903080023 78 0.0 0.0 0.00 0.00 0.00 88 1015.2
20260903075022 77 0.0 0.0 0.00 0.00 0.00 89 1015.1
20260903074022 77 0.0 0.0 0.00 0.00 0.00 89 1015.1
20260903073022 77 0.0 0.0 0.00 0.00 0.00 89 1015.1
20260903072022 77 0.0 0.0 0.00 0.00 0.00 88 1015.2
20260903071022 77 0.0 0.0 0.00 0.00 0.00 88 1015.1
20260903070023 77 0.0 0.0 0.00 0.00 0.00 89 1015.0
20260903065022 77 0.0 0.0 0.00 0.00 0.00 89 1015.1
20260903064026 78 0.0 0.0 0.00 0.00 0.00 89 1015.1
20260903063022 78 0.0 0.0 0.00 0.00 0.00 89 1015.3
20260903062022 78 0.0 0.0 0.00 0.00 0.00 88 1015.3
20260903061022 78 0.0 0.0 0.00 0.00 0.00 88 1015.3
20260903060022 78 0.0 0.0 0.00 0.00 0.00 88 1015.3
20260903055022 78 0.0 0.0 0.00 0.00 0.00 88 1015.2
20260903054022 78 0.0 0.0 0.00 0.00 0.00 88 1015.2
20260903053022 78 0.0 0.0 0.00 0.00 0.00 87 1015.2
20260903052022 78 0.0 0.0 0.00 0.00 0.00 87 1015.2
20260903051022 78 0.0 0.0 0.00 0.00 0.00 87 1015.2
20260903050022 79 0.0 0.0 0.00 0.00 0.00 87 1015.2
20260903045026 79 0.0 0.0 0.00 0.00 0.00 87 1015.3
20260903044022 79 0.0 0.0 0.00 0.00 0.00 87 1015.2
20260903043022 79 0.0 0.0 0.00 0.00 0.00 86 1015.2
20260903042021 79 0.0 0.0 0.00 0.00 0.00 86 1015.3
20260903041022 79 0.0 0.0 0.00 0.00 0.00 86 1015.1
20260903040022 79 0.0 0.0 0.00 0.00 0.00 86 1015.1
20260903035022 80 0.0 0.0 0.00 0.00 0.00 85 1015.1
20260903034024 80 0.0 0.0 0.00 0.00 0.00 84 1015.2
20260903033022 80 0.0 0.0 0.00 0.00 0.00 85 1015.2
20260903032021 80 0.0 0.0 0.00 0.00 0.00 84 1015.2
20260903031026 81 0.0 0.0 0.00 0.00 0.00 84 1015.2
20260903030021 81 0.0 0.0 0.00 0.00 0.00 84 1015.3
20260903025021 81 0.0 0.0 0.00 0.00 0.00 83 1015.3
20260903024021 81 0.0 0.0 0.00 0.00 0.00 83 1015.2
20260903023021 82 0.0 0.0 0.00 0.00 0.00 81 1015.1
20260903022021 82 0.0 0.0 0.00 0.00 0.00 80 1015.2
20260903021025 82 0.0 0.0 0.00 0.00 0.00 80 1015.1
20260903020021 82 0.0 0.0 0.00 0.00 0.00 80 1015.0
20260903015021 83 0.0 0.0 0.00 0.00 0.00 78 1015.0
20260903014021 83 0.0 0.0 0.00 0.00 0.00 79 1014.9
20260903013023 84 0.0 0.0 0.00 0.00 0.00 78 1014.8
20260903012022 84 0.0 0.0 0.00 0.00 0.00 77 1014.7
20260903011021 84 0.0 0.0 0.00 0.00 0.00 77 1014.5
20260903010021 85 0.0 0.0 0.00 0.00 0.00 75 1014.5
20260903005021 85 0.0 0.0 0.00 0.00 0.00 76 1014.4
20260903004021 86 0.0 0.0 0.00 0.00 0.00 73 1014.3
20260903003020 87 0.0 0.0 0.00 0.00 0.00 76 1014.4
20260903002020 87 0.0 0.0 0.00 0.00 0.00 75 1014.4
20260903001025 88 0.0 0.0 0.00 0.00 0.00 72 1014.2
20260903000021 89 0.0 0.0 0.00 0.00 0.00 70 1014.3
20260902235021 90 0.0 0.0 0.00 0.00 0.00 71 1014.3
20260902234021 91 0.0 0.0 0.00 0.00 0.00 61 1014.5
20260902233021 91 0.0 0.0 0.00 0.00 0.00 59 1014.4
20260902232022 92 0.0 0.0 0.00 0.00 0.00 55 1014.4